Minneapolis Flying Cloud, MN

7:42 PM CDT on October 17, 2017 (GMT -0500)
Flying Cloud

Weather History for KFCM - October, 2011

Change the Weather History Date:

Wednesday, October 26, 2011

  Actual Average Record
Temperature  
Mean Temperature 44 °F -  
Max Temperature 48 °F 52 °F 69 °F (2000)
Min Temperature 39 °F 36 °F 24 °F (1997)
Degree Days  
Heating Degree Days 22    
Moisture  
Dew Point 36 °F    
Average Humidity 73    
Maximum Humidity 86    
Minimum Humidity 61    
Precipitation  
Precipitation 0.00 in - - ()
Sea Level Pressure  
Sea Level Pressure 30.07 in    
Wind  
Wind Speed 6 mph (NW)    
Max Wind Speed 10 mph    
Max Gust Speed -    
Visibility 10 miles    
Events Rain    
Averages and records for this station are not official NWS values.
T = Trace of Precipitation, MM = Missing Value Source: NWS Daily Summary

Daily Weather History Graph

Daily Weather History Graph

Search for Another Location

Airport or City:

Trip Planner

Search our weather history database for the weather conditions in past years. The results will help you decide how hot, cold, wet, or windy it might be!

Date:

Astronomy

Oct. 26, 2011 Rise Set
Actual Time 7:43 AM CDT 6:11 PM CDT
Civil Twilight 7:13 AM CDT 6:41 PM CDT
Nautical Twilight 6:39 AM CDT 7:15 PM CDT
Astronomical Twilight 6:05 AM CDT 7:49 PM CDT
Moon 7:34 AM CDT (10/26) 5:50 PM CDT (10/26)
Length of Visible Light 11h 28m
Length of Day
10h 27m
Waning Crescent, 0% of the Moon is Illuminated
Oct 26
Waning Crescent
Oct 26
New
Nov 2
First Quarter
Nov 10
Full
Nov 18
Last Quarter

Hourly Weather History & Observations

Time (CDT) Temp. Windchill Dew Point Humidity Pressure Visibility Wind Dir Wind Speed Gust Speed Precip Events Conditions
12:53 AM 42.1 °F 37.1 °F 36.0 °F 79% 30.04 in 10.0 mi North 8.1 mph - N/A   Overcast
1:53 AM 42.1 °F 37.1 °F 36.0 °F 79% 30.04 in 10.0 mi North 8.1 mph - N/A   Overcast
2:53 AM 42.1 °F 37.1 °F 36.0 °F 79% 30.05 in 10.0 mi NE 8.1 mph - N/A   Mostly Cloudy
3:53 AM 42.1 °F 39.2 °F 35.1 °F 76% 30.08 in 10.0 mi North 4.6 mph - N/A   Overcast
4:53 AM 42.1 °F 39.2 °F 35.1 °F 76% 30.07 in 10.0 mi NE 4.6 mph - 0.00 in Rain Light Rain
6:53 AM 42.1 °F - 37.0 °F 82% 30.08 in 10.0 mi Calm Calm - N/A   Overcast
7:53 AM 42.1 °F - 37.0 °F 82% 30.07 in 10.0 mi Calm Calm - N/A   Overcast
8:53 AM 42.1 °F 39.2 °F 37.0 °F 82% 30.10 in 10.0 mi NNW 4.6 mph - N/A   Overcast
10:53 AM 44.1 °F 42.5 °F 37.0 °F 76% 30.11 in 10.0 mi NNW 3.5 mph - N/A   Overcast
11:53 AM 46.0 °F 43.1 °F 37.9 °F 73% 30.12 in 10.0 mi NW 5.8 mph - N/A   Overcast
12:48 PM 48.2 °F - 37.4 °F 66% 30.10 in 10.0 mi NNW 3.5 mph - N/A   Overcast
12:53 PM 48.0 °F - 37.9 °F 68% 30.12 in 10.0 mi NW 6.9 mph - N/A   Overcast
1:40 PM 48.2 °F - 35.6 °F 62% 30.08 in 10.0 mi North 8.1 mph - N/A   Overcast
1:53 PM 48.9 °F - 36.0 °F 61% 30.09 in 10.0 mi NNW 10.4 mph - N/A   Overcast
2:06 PM 48.2 °F - 35.6 °F 62% 30.07 in 10.0 mi WNW 4.6 mph - N/A   Overcast
2:49 PM 48.2 °F - 35.6 °F 62% 30.06 in 10.0 mi West 6.9 mph - N/A   Overcast
2:53 PM 48.9 °F - 36.0 °F 61% 30.08 in 10.0 mi WNW 9.2 mph - N/A   Overcast
3:04 PM 48.2 °F - 35.6 °F 62% 30.06 in 10.0 mi West 5.8 mph - N/A   Overcast
3:44 PM 48.2 °F - 37.4 °F 66% 30.06 in 10.0 mi West 6.9 mph - N/A   Overcast
3:53 PM 46.9 °F - 37.9 °F 71% 30.08 in 10.0 mi West 8.1 mph - N/A   Overcast
4:23 PM 46.4 °F 42.4 °F 37.4 °F 71% 30.05 in 10.0 mi WNW 8.1 mph - N/A   Overcast
4:53 PM 46.9 °F - 36.0 °F 66% 30.05 in 10.0 mi West 5.8 mph - N/A   Partly Cloudy
5:53 PM 45.0 °F 41.8 °F 36.0 °F 71% 30.06 in 10.0 mi WNW 5.8 mph - N/A   Clear
6:53 PM 42.1 °F 40.2 °F 35.1 °F 76% 30.06 in 10.0 mi West 3.5 mph - N/A   Clear
7:53 PM 39.9 °F 36.7 °F 35.1 °F 83% 30.07 in 10.0 mi West 4.6 mph - N/A   Clear
8:53 PM 41.0 °F 38.0 °F 36.0 °F 82% 30.07 in 10.0 mi NW 4.6 mph - N/A   Scattered Clouds
9:53 PM 41.0 °F 36.4 °F 36.0 °F 82% 30.06 in 10.0 mi NW 6.9 mph - N/A   Partly Cloudy
10:53 PM 41.0 °F - 36.0 °F 82% 30.06 in 10.0 mi Calm Calm - N/A   Overcast
11:53 PM 39.9 °F - 36.0 °F 86% 30.06 in 10.0 mi Calm Calm - N/A   Overcast